Location: Val-d'Or
(48.1170°N, 77.7670°W)
Time: 01:22:08
(UTC-04:00)

ISS - Pass Details

Date: 21 May 2018
Orbit: 402 x 407 km, 51.6° (Epoch: 24 May)

Event Time Altitude Azimuth Distance (km) Brightness Sun altitude
Rises 02:31:24 0° 289° (WNW) 2,319 0.0 -19.2°
Reaches altitude 10° 02:33:31 10° 294° (WNW) 1,458 -1.0 -19.0°
Maximum altitude 02:36:44 56° 14° (NNE) 485 -3.2 -18.8°
Drops below altitude 10° 02:39:57 10° 94° (E) 1,455 -0.8 -18.6°
Sets 02:42:03 0° 99° (E) 2,313 0.2 -18.5°
